Wind_Speed
5 9 11 10 9 8 10 12 14 11 9 5 7 8 6 15 17 20 21 23 25 26 26 28 29 28 26 25 24 23 22 20 19 18 16 16 15 13 12 12 12 10 8 8
7 13 14 5 9 10 12 14 13 9 8 7 7 12 8 8 14 17 20 22 23 23 25 28 29 30 28 27 26 25 24 23 24 19 18 16 14 13 12 13 13 13 10 8
13 8 5 9 12 12 16 14 12 14 14 4 10 9 5 7 8 12 17 20 22 25 26 28 31 31 30 29 28 26 27 25 26 23 18 16 14 14 13 15 14 15 13 10
10 5 9 10 12 14 16 15 8 13 12 7 5 6 2 6 6 6 12 20 22 26 26 27 30 32 33 31 28 27 26 28 26 25 22 22 17 14 13 14 11 15 14 12
4 4 6 9 7 11 14 6 7 9 13 9 12 7 3 10 6 6 3 16 24 27 29 28 31 32 32 31 29 27 27 29 27 27 27 23 22 16 12 11 13 15 15 15
11 4 6 7 10 7 4 8 8 8 10 11 1 6 12 7 7 6 6 5 21 28 30 29 29 29 30 30 29 27 28 30 28 28 26 27 22 18 15 14 12 12 16 16
5 9 2 6 11 5 9 13 8 8 10 11 6 8 11 9 11 10 10 9 16 29 32 32 30 30 29 30 29 26 26 29 29 28 27 26 25 23 19 17 13 14 15 15
4 10 5 2 6 9 7 10 9 8 9 10 4 7 2 6 9 12 7 6 11 26 31 31 31 31 30 30 29 27 26 27 26 27 26 25 25 23 21 19 15 14 14 15
3 5 5 2 3 6 5 8 9 12 10 10 14 1 10 4 10 12 11 7 4 20 25 29 30 30 30 30 30 29 29 26 25 23 22 24 26 25 22 22 20 16 15 14
4 5 4 4 4 6 7 6 8 8 10 11 7 3 7 10 12 11 11 8 5 8 17 22 25 28 28 28 28 29 30 28 26 25 23 23 27 26 26 24 23 20 17 17
6 5 2 7 1 9 6 10 6 7 6 10 9 3 9 6 8 11 11 10 5 2 9 16 20 22 23 24 23 23 24 25 26 26 25 24 25 28 26 27 27 26 23 21
5 8 11 8 2 1 6 5 10 8 8 7 9 6 7 6 7 9 10 9 6 7 4 9 15 18 20 20 21 22 22 24 24 23 24 24 25 26 27 28 26 26 26 25
2 6 8 5 11 9 9 1 6 7 8 13 10 1 3 6 5 7 9 11 11 8 5 6 9 14 14 13 15 15 18 19 19 22 22 22 22 25 27 27 28 26 28 28
4 13 10 11 9 7 9 10 9 10 10 11 8 10 2 6 5 5 7 9 10 9 9 7 6 9 8 8 7 5 7 11 15 16 18 21 23 24 24 25 27 29 29 29
6 13 9 12 11 13 14 16 15 14 15 15 15 7 9 7 5 3 3 5 8 8 10 11 8 8 10 12 12 11 5 5 10 16 19 21 21 20 22 23 25 28 31 32
5 11 8 15 17 17 18 19 19 19 18 19 16 19 15 3 3 6 4 3 6 8 7 10 9 14 15 12 10 10 13 21 16 15 15 17 20 23 25 26 27 28 29 31
11 11 9 15 9 10 12 18 18 17 18 15 15 14 9 7 7 10 9 5 5 6 6 6 8 11 12 11 9 11 13 25 20 17 9 10 10 16 21 24 26 28 29 30
14 10 10 10 5 13 3 3 2 7 8 10 14 10 6 7 4 7 8 6 6 8 8 7 9 12 12 12 13 13 13 19 16 3 2 3 6 12 18 20 22 23 24 27
8 10 7 7 10 13 12 5 5 6 9 8 9 6 7 5 6 10 7 5 5 9 7 7 7 7 8 10 11 10 7 8 11 11 10 10 10 9 12 14 19 22 22 26
5 8 8 5 8 8 7 5 4 6 10 10 8 6 5 5 8 6 5 4 5 7 7 7 6 4 3 3 5 7 7 5 4 7 9 11 15 16 15 12 13 15 21 24
6 6 11 9 9 7 6 5 3 10 5 13 11 8 8 9 11 4 4 1 4 7 9 9 8 7 6 4 3 2 2 1 3 4 5 7 13 17 21 22 18 15 18 21
6 5 7 8 9 14 7 3 7 10 11 10 10 9 9 9 10 11 10 8 7 8 9 9 10 10 8 6 4 4 2 5 8 9 9 11 14 15 18 23 25 20 18 25
5 5 5 4 3 1 8 12 9 9 9 12 15 14 13 14 13 12 13 12 9 8 9 9 10 11 10 8 8 6 7 9 11 13 12 11 11 11 15 19 24 24 20 17
5 4 7 6 8 5 9 16 18 15 16 20 21 22 20 21 20 19 17 15 13 11 10 10 11 10 11 11 12 13 12 11 12 13 15 15 14 14 16 18 20 22 22 20
7 4 7 13 17 15 13 7 14 17 19 20 18 17 22 24 26 25 24 21 19 16 14 13 14 13 12 12 11 9 10 11 12 14 13 14 17 18 17 16 16 19 22 21
13 12 10 10 13 14 18 20 19 19 19 19 19 22 24 26 28 26 26 24 20 17 15 16 15 16 13 13 13 11 11 13 15 14 16 18 20 21 20 18 19 21 21 23
Wind_Direction
230 256 244 292 346 318 303 303 311 2 10 279 264 285 279 187 203 194 197 197 198 203 199 197 195 198 198 199 197 197 198 201 198 200 205 212 217 222 224 224 229 232 246 230
233 250 267 342 286 281 280 288 297 327 29 300 314 295 280 190 204 204 197 196 200 197 194 195 198 196 200 202 203 201 203 205 208 209 213 218 225 227 228 235 227 227 233 235
260 291 349 281 274 258 269 275 309 322 322 231 315 253 131 115 182 201 206 204 198 196 194 195 196 198 198 202 202 203 207 209 216 209 215 219 223 221 225 232 230 223 226 234
264 291 259 263 267 272 273 283 308 300 306 353 44 301 161 115 119 188 209 211 203 198 199 195 196 198 199 200 204 206 209 214 220 223 218 220 218 224 232 238 223 226 229 228
97 220 225 255 305 323 288 348 284 291 284 294 177 254 132 115 44 20 188 212 213 200 199 196 198 198 199 200 203 207 213 219 220 225 221 225 225 230 227 223 221 228 226 220
279 279 279 328 307 278 294 253 233 244 270 274 253 288 295 53 6 344 343 250 210 200 199 200 198 197 199 201 204 206 213 222 225 230 231 232 227 220 219 217 224 217 220 213
183 217 223 274 282 175 221 247 256 228 225 248 100 295 300 48 2 350 327 291 213 200 194 198 197 196 199 203 206 208 212 224 228 233 237 237 238 233 225 224 219 215 210 212
259 167 184 54 11 337 350 325 294 285 267 284 116 269 30 22 13 2 354 328 195 194 193 196 196 198 198 199 205 208 213 227 231 232 237 240 239 229 225 227 216 218 220 221
206 134 134 46 344 318 10 265 360 293 252 265 276 148 258 58 29 21 23 36 167 189 192 198 200 201 201 200 201 205 214 222 229 235 233 234 232 228 219 213 218 218 215 217
49 277 176 91 251 214 287 346 260 218 268 266 248 270 280 17 5 9 20 16 37 179 196 198 201 204 208 209 208 211 218 221 222 226 228 229 227 226 224 222 222 214 215 209
320 264 205 252 277 334 270 240 215 293 291 295 270 230 58 21 360 355 6 14 350 287 207 205 202 205 209 210 211 212 217 221 223 224 222 224 225 225 224 226 227 224 226 225
22 307 287 323 49 287 295 319 272 282 239 239 301 314 62 29 9 355 3 11 357 324 213 197 199 200 205 207 209 209 213 216 220 218 219 221 224 221 225 227 228 228 226 230
10 278 289 218 173 193 256 287 302 276 279 275 281 230 67 57 8 22 20 17 16 30 78 136 177 189 194 200 204 213 216 220 215 221 218 212 216 222 226 230 229 228 231 233
286 276 280 292 349 333 297 279 267 281 284 283 238 270 118 35 23 58 46 30 26 29 56 81 119 145 151 158 177 203 228 231 232 220 216 220 221 222 224 228 232 232 239 240
266 275 277 277 283 277 278 282 280 273 271 280 283 304 302 342 344 98 72 50 53 47 54 73 69 99 110 114 112 93 90 314 246 229 225 226 226 230 233 230 230 233 232 238
241 273 286 273 275 274 273 271 266 263 263 263 264 272 281 324 220 188 166 101 82 57 61 64 92 98 95 106 69 202 235 337 278 246 231 234 246 251 250 252 257 252 245 242
280 273 259 276 285 289 265 253 253 258 257 254 255 266 326 262 229 206 186 168 134 123 109 102 101 95 93 97 91 71 103 211 289 262 282 242 241 253 253 254 252 253 254 253
262 255 270 268 271 250 319 69 307 296 274 255 248 266 277 269 230 204 202 196 179 166 155 138 117 106 100 101 105 123 157 192 209 119 251 310 329 290 273 273 262 253 244 243
251 249 247 249 242 265 277 195 247 239 298 214 239 234 251 230 256 232 230 230 210 191 172 160 150 144 122 120 122 115 109 70 41 21 13 17 17 340 309 288 273 264 250 244
203 231 244 206 269 277 51 58 328 305 255 20 316 279 260 253 252 104 126 153 170 180 189 190 195 196 174 139 135 141 144 131 90 60 29 17 14 8 357 328 296 271 261 261
183 217 230 233 259 280 62 340 296 239 11 351 354 338 302 255 287 347 331 356 239 210 207 210 214 221 221 210 200 201 173 137 31 13 355 346 345 343 341 342 334 283 265 261
237 230 217 246 264 253 42 221 298 347 319 346 350 340 318 302 297 303 305 300 283 253 234 227 223 221 225 220 228 243 262 311 325 326 326 327 333 333 332 327 325 315 272 264
248 253 323 257 27 8 301 300 315 310 307 322 320 311 306 301 295 297 301 305 302 277 254 244 236 233 226 228 253 243 267 294 302 306 305 299 300 299 318 328 324 312 297 270
191 242 252 288 258 298 291 300 299 291 291 300 294 291 290 289 289 288 287 287 288 287 280 265 258 251 246 252 263 276 286 293 297 301 301 298 294 294 308 315 315 304 298 280
308 156 253 265 268 278 280 269 309 306 300 299 299 286 286 283 282 284 284 283 281 278 272 270 271 269 262 268 275 278 284 294 303 307 310 300 294 289 288 289 291 296 297 285
236 244 252 268 309 306 295 295 297 299 297 296 295 297 287 279 278 278 280 277 278 279 276 265 263 261 256 259 267 277 292 304 310 312 305 295 291 285 281 281 288 290 293 286
Height
1504 1502 1497 1486 1490 1494 1493 1491 1489 1480 1481 1485 1480 1480 1477 1485 1490 1492 1497 1503 1507 1511 1517 1521 1525 1531 1536 1540 1543 1546 1551 1554 1556 1559 1562 1564 1565 1567 1568 1568 1569 1569 1570 1572
1503 1500 1489 1492 1495 1495 1492 1492 1485 1479 1479 1484 1476 1477 1469 1475 1486 1489 1493 1497 1503 1508 1512 1517 1522 1525 1530 1535 1539 1542 1546 1549 1552 1556 1559 1562 1564 1565 1566 1565 1566 1567 1568 1569
1500 1491 1495 1495 1492 1495 1488 1486 1486 1488 1479 1473 1476 1470 1471 1475 1481 1485 1490 1493 1497 1502 1506 1512 1516 1521 1525 1530 1534 1537 1541 1545 1547 1552 1555 1557 1560 1561 1561 1562 1563 1564 1566 1568
1496 1491 1495 1493 1493 1488 1492 1476 1482 1485 1484 1489 1482 1499 1466 1474 1477 1483 1485 1489 1491 1496 1501 1506 1511 1516 1520 1524 1530 1534 1537 1540 1544 1548 1552 1553 1556 1558 1560 1560 1562 1562 1564 1566
1493 1493 1494 1494 1488 1486 1487 1483 1484 1484 1483 1479 1479 1487 1462 1463 1476 1475 1475 1482 1486 1490 1496 1500 1505 1510 1516 1521 1525 1530 1533 1537 1540 1543 1547 1550 1552 1556 1558 1559 1559 1560 1562 1564
1492 1494 1494 1489 1488 1487 1486 1487 1484 1481 1480 1495 1473 1483 1472 1468 1476 1472 1472 1475 1478 1483 1490 1495 1501 1506 1512 1518 1523 1526 1528 1532 1535 1538 1542 1545 1549 1552 1555 1556 1557 1558 1559 1561
1491 1489 1489 1491 1484 1482 1484 1480 1494 1499 1494 1492 1466 1481 1469 1461 1468 1469 1470 1470 1470 1476 1482 1489 1495 1500 1507 1513 1518 1522 1523 1526 1531 1534 1537 1541 1544 1547 1550 1552 1554 1557 1558 1559
1493 1505 1488 1488 1489 1490 1484 1483 1492 1513 1501 1485 1470 1488 1467 1466 1466 1468 1468 1465 1466 1471 1477 1485 1490 1496 1500 1505 1511 1516 1518 1521 1525 1529 1533 1536 1539 1543 1546 1548 1552 1554 1555 1557
1495 1496 1488 1489 1489 1490 1483 1490 1479 1487 1476 1492 1475 1468 1458 1461 1466 1469 1468 1466 1467 1471 1475 1481 1487 1492 1496 1500 1502 1507 1511 1516 1520 1523 1527 1531 1534 1537 1541 1545 1547 1550 1552 1554
1491 1500 1485 1487 1491 1488 1488 1484 1491 1481 1508 1510 1479 1482 1475 1471 1471 1469 1469 1470 1471 1472 1475 1479 1483 1488 1493 1497 1499 1503 1505 1509 1514 1518 1521 1525 1529 1533 1536 1539 1541 1545 1547 1549
1491 1492 1490 1486 1486 1491 1488 1486 1483 1482 1483 1494 1494 1478 1465 1474 1475 1473 1471 1472 1473 1473 1474 1477 1480 1484 1488 1492 1497 1500 1503 1506 1509 1513 1516 1520 1523 1527 1531 1534 1536 1539 1541 1543
1497 1492 1497 1491 1488 1494 1491 1489 1486 1492 1489 1480 1484 1480 1473 1476 1476 1476 1475 1475 1476 1475 1471 1473 1476 1480 1483 1487 1492 1493 1497 1499 1502 1507 1511 1514 1518 1522 1525 1529 1532 1535 1537 1538
1495 1493 1504 1490 1489 1489 1491 1487 1486 1482 1477 1487 1492 1477 1476 1475 1478 1479 1477 1475 1475 1470 1470 1471 1474 1477 1480 1484 1488 1491 1494 1497 1500 1502 1506 1510 1512 1515 1519 1522 1526 1529 1532 1534
1504 1493 1499 1503 1495 1492 1495 1487 1484 1486 1488 1479 1479 1471 1468 1473 1477 1480 1481 1479 1478 1476 1473 1474 1476 1477 1480 1483 1488 1491 1495 1498 1500 1502 1504 1506 1508 1510 1513 1517 1520 1523 1526 1529
1501 1499 1493 1493 1491 1492 1493 1491 1487 1488 1484 1488 1477 1475 1471 1474 1478 1482 1484 1483 1482 1482 1478 1475 1478 1480 1480 1483 1485 1486 1490 1498 1501 1499 1500 1500 1503 1506 1509 1512 1514 1515 1518 1521
1498 1502 1499 1501 1491 1488 1489 1485 1482 1481 1480 1478 1477 1478 1470 1476 1481 1483 1484 1484 1483 1481 1482 1479 1484 1482 1480 1481 1481 1475 1469 1477 1495 1499 1495 1494 1496 1499 1502 1505 1507 1509 1512 1515
1499 1498 1500 1503 1487 1492 1495 1476 1474 1473 1470 1473 1480 1470 1468 1472 1476 1478 1482 1484 1483 1484 1483 1483 1484 1483 1483 1484 1481 1480 1476 1495 1494 1508 1498 1492 1489 1493 1495 1496 1498 1501 1504 1506
1500 1501 1500 1502 1496 1511 1468 1469 1472 1472 1467 1467 1468 1467 1471 1472 1472 1475 1478 1481 1483 1484 1484 1484 1483 1484 1486 1488 1489 1493 1497 1504 1508 1499 1496 1491 1480 1487 1490 1487 1488 1492 1496 1497
1499 1497 1499 1502 1492 1477 1469 1473 1473 1475 1469 1464 1465 1467 1471 1473 1474 1474 1477 1479 1481 1482 1483 1484 1484 1485 1486 1488 1489 1490 1492 1491 1489 1489 1485 1484 1486 1486 1485 1482 1483 1484 1487 1490
1497 1495 1497 1490 1501 1496 1476 1474 1477 1475 1478 1470 1469 1468 1470 1475 1471 1468 1475 1477 1478 1481 1482 1483 1484 1484 1484 1485 1486 1489 1491 1491 1490 1487 1485 1485 1484 1483 1480 1479 1479 1479 1480 1481
1496 1495 1496 1487 1493 1477 1474 1478 1478 1486 1484 1477 1476 1474 1474 1473 1472 1476 1477 1477 1478 1479 1479 1480 1481 1482 1482 1482 1483 1484 1483 1483 1482 1482 1482 1481 1479 1478 1476 1475 1475 1475 1475 1474
1490 1491 1487 1486 1491 1494 1479 1480 1483 1483 1480 1480 1479 1478 1479 1479 1478 1477 1476 1477 1477 1477 1478 1478 1478 1478 1479 1479 1479 1480 1479 1477 1477 1477 1476 1476 1475 1474 1474 1474 1473 1470 1469 1467
1494 1484 1484 1484 1476 1480 1482 1482 1484 1483 1483 1481 1481 1480 1479 1478 1477 1477 1476 1474 1475 1474 1475 1475 1475 1475 1475 1474 1474 1474 1473 1473 1473 1473 1473 1474 1473 1473 1472 1469 1466 1462 1461 1460
1483 1490 1486 1487 1476 1479 1481 1482 1482 1482 1482 1482 1481 1479 1478 1476 1474 1473 1472 1472 1471 1470 1470 1471 1471 1471 1471 1470 1470 1469 1467 1468 1469 1469 1469 1469 1469 1467 1464 1461 1461 1460 1457 1455
1483 1489 1485 1482 1480 1480 1480 1481 1481 1481 1480 1478 1476 1476 1475 1473 1470 1468 1467 1467 1467 1466 1465 1465 1464 1464 1465 1464 1464 1463 1463 1463 1462 1462 1463 1464 1463 1462 1459 1456 1455 1453 1452 1449
1482 1483 1481 1476 1476 1478 1480 1480 1480 1479 1477 1475 1473 1471 1470 1468 1466 1464 1462 1460 1460 1459 1458 1458 1458 1458 1458 1458 1459 1458 1458 1458 1458 1458 1459 1458 1457 1457 1456 1453 1449 1447 1445 1443